Back to catalog

ONEWEB-0642

AliveCommunicationsPO
NORAD 55806·PAYLOAD·🇬🇧 United Kingdom

Launched Mar 9, 2023 from Cape Canaveral Space Force Station

Loading…

Next Passes (next 24 hours)

TLE

FreshSource: CelesTrak SupGP

Epoch: Sep 14, 2026, 17:42 UTC

1 55806C 23029L   26257.73765463 -.00002097  00000+0 -52456-2 0  2573
2 55806  87.9101 287.1364 0001742  69.3021  44.5200 13.19725464    16

Track ONEWEB-0642 in real time with AllMySat

Download on the App Store